Temp
-15 -14 -14 -14 -13 -13 -13 -13 -12 -12 -12 -12 -12 -11 -11 -10 -10 -10 -10 -10 -10 -9 -9 -9 -9 -9 -9 -9 -8 -8 -8 -8 -8 -8 -8 -8 -8 -8 -7 -7 -7 -7
-15 -15 -14 -14 -14 -14 -14 -13 -13 -13 -13 -12 -12 -12 -12 -11 -11 -11 -10 -10 -10 -10 -10 -10 -10 -10 -10 -10 -9 -9 -9 -8 -8 -8 -8 -8 -8 -8 -8 -8 -8 -8
-16 -16 -15 -15 -14 -14 -14 -14 -14 -13 -13 -13 -13 -12 -12 -12 -12 -11 -11 -11 -11 -10 -10 -10 -10 -10 -10 -10 -10 -10 -9 -9 -9 -8 -8 -8 -8 -8 -8 -8 -8 -8
-16 -16 -16 -15 -15 -15 -14 -14 -14 -14 -13 -13 -13 -13 -12 -12 -12 -12 -12 -12 -11 -11 -11 -11 -11 -11 -10 -10 -10 -10 -10 -10 -9 -9 -9 -9 -9 -8 -8 -8 -8 -8
-17 -17 -16 -16 -16 -15 -15 -14 -14 -14 -14 -13 -13 -13 -13 -12 -12 -12 -12 -12 -12 -12 -12 -12 -11 -11 -11 -11 -11 -10 -10 -10 -10 -9 -9 -9 -9 -9 -9 -9 -8 -8
-17 -17 -16 -16 -16 -16 -16 -15 -14 -14 -14 -13 -13 -13 -13 -13 -13 -13 -12 -12 -12 -12 -12 -12 -12 -12 -12 -12 -11 -11 -11 -10 -10 -10 -10 -9 -9 -9 -9 -9 -9 -9
-17 -17 -16 -16 -16 -16 -16 -15 -15 -14 -14 -14 -13 -13 -13 -13 -13 -13 -13 -13 -13 -13 -12 -12 -12 -12 -12 -12 -12 -12 -11 -11 -11 -10 -10 -10 -10 -9 -9 -9 -9 -9
-17 -17 -16 -16 -16 -16 -16 -15 -15 -15 -14 -14 -14 -14 -14 -13 -13 -13 -13 -13 -13 -13 -13 -13 -13 -13 -13 -13 -13 -12 -12 -12 -11 -11 -11 -10 -10 -10 -9 -9 -9 -9
-17 -17 -17 -16 -16 -16 -16 -15 -15 -15 -15 -14 -14 -14 -14 -14 -14 -14 -14 -14 -14 -14 -13 -13 -13 -13 -13 -13 -13 -13 -13 -13 -12 -12 -12 -11 -11 -10 -10 -10 -10 -9
-17 -17 -17 -17 -16 -16 -16 -16 -16 -15 -15 -15 -14 -14 -14 -14 -14 -14 -14 -14 -14 -14 -14 -14 -14 -14 -14 -14 -13 -13 -13 -13 -13 -13 -13 -12 -12 -11 -11 -10 -10 -10
-17 -17 -17 -17 -16 -16 -16 -16 -16 -16 -15 -15 -15 -15 -15 -15 -15 -15 -14 -14 -14 -14 -15 -15 -15 -14 -14 -14 -14 -14 -14 -13 -13 -13 -13 -13 -13 -12 -11 -11 -11 -10
-17 -17 -17 -17 -17 -17 -17 -17 -16 -16 -16 -15 -15 -15 -15 -15 -15 -15 -15 -15 -15 -15 -15 -15 -15 -15 -15 -14 -14 -14 -14 -14 -14 -14 -14 -13 -13 -13 -12 -12 -11 -11
-17 -17 -17 -17 -17 -17 -17 -17 -17 -16 -16 -16 -15 -15 -15 -15 -15 -15 -16 -16 -16 -16 -15 -15 -15 -15 -15 -15 -15 -14 -14 -14 -14 -14 -14 -14 -14 -13 -13 -12 -12 -11
-17 -17 -17 -17 -17 -17 -17 -17 -17 -16 -16 -16 -16 -16 -16 -16 -16 -16 -16 -16 -16 -16 -16 -15 -15 -15 -15 -15 -15 -15 -15 -15 -14 -14 -14 -14 -14 -14 -13 -12 -12 -12
-17 -17 -16 -16 -16 -17 -17 -17 -17 -16 -16 -16 -16 -16 -16 -16 -16 -16 -16 -16 -16 -16 -16 -16 -16 -15 -15 -15 -15 -15 -15 -15 -15 -15 -14 -14 -14 -14 -13 -13 -12 -12
-17 -17 -16 -16 -16 -17 -17 -17 -16 -16 -16 -16 -16 -16 -16 -16 -16 -16 -16 -16 -16 -16 -16 -16 -16 -16 -15 -16 -16 -15 -15 -15 -15 -15 -15 -14 -14 -14 -14 -13 -13 -12
-17 -16 -16 -16 -16 -16 -17 -17 -17 -16 -16 -16 -16 -16 -16 -16 -16 -16 -16 -16 -16 -16 -16 -16 -16 -16 -16 -16 -16 -16 -15 -15 -15 -15 -15 -14 -14 -14 -14 -13 -13 -13
-17 -17 -16 -16 -16 -16 -17 -17 -17 -17 -16 -16 -17 -16 -16 -16 -16 -16 -16 -16 -16 -16 -16 -16 -16 -16 -16 -16 -16 -16 -16 -15 -15 -15 -15 -14 -14 -14 -14 -14 -13 -13
-17 -17 -17 -16 -16 -16 -17 -17 -17 -17 -17 -17 -17 -17 -16 -16 -16 -16 -16 -16 -16 -16 -16 -16 -16 -16 -16 -16 -16 -16 -16 -16 -15 -15 -15 -14 -14 -14 -14 -14 -14 -13
-17 -17 -17 -17 -16 -17 -17 -17 -17 -17 -17 -17 -17 -17 -17 -16 -16 -16 -16 -16 -16 -16 -16 -16 -15 -16 -16 -16 -16 -16 -16 -16 -15 -15 -15 -15 -14 -14 -14 -14 -14 -14
-17 -17 -17 -17 -17 -17 -17 -17 -17 -17 -17 -17 -17 -17 -17 -16 -16 -16 -16 -16 -16 -16 -16 -15 -15 -16 -16 -16 -16 -16 -16 -16 -15 -15 -15 -15 -14 -14 -14 -14 -14 -14
-17 -17 -17 -17 -18 -18 -18 -18 -18 -18 -18 -17 -17 -17 -17 -17 -16 -16 -16 -16 -16 -16 -16 -15 -15 -16 -16 -16 -16 -16 -16 -16 -15 -15 -15 -15 -15 -15 -15 -15 -15 -15
-17 -17 -18 -18 -18 -18 -18 -18 -17 -18 -18 -17 -17 -17 -17 -17 -16 -16 -16 -16 -16 -16 -16 -16 -16 -16 -16 -16 -16 -16 -16 -16 -15 -15 -16 -15 -15 -15 -15 -15 -15 -15
-18 -18 -18 -18 -18 -18 -17 -17 -18 -18 -17 -17 -17 -17 -17 -16 -16 -16 -16 -16 -16 -16 -16 -16 -16 -16 -16 -16 -16 -16 -16 -16 -15 -15 -15 -16 -16 -16 -16 -16 -16 -15
-18 -18 -18 -18 -18 -17 -17 -18 -18 -18 -17 -17 -17 -17 -16 -16 -16 -16 -16 -16 -16 -16 -16 -16 -15 -15 -16 -16 -16 -16 -16 -16 -16 -15 -15 -15 -16 -16 -16 -16 -16 -16
-18 -18 -18 -18 -18 -18 -18 -18 -18 -17 -17 -17 -17 -16 -16 -16 -16 -17 -16 -16 -16 -16 -16 -16 -15 -15 -15 -16 -15 -16 -16 -16 -16 -15 -15 -15 -15 -16 -16 -16 -16 -15
Height
2887 2886 2884 2883 2881 2881 2880 2880 2879 2880 2880 2880 2881 2882 2883 2883 2884 2884 2885 2887 2888 2889 2891 2892 2894 2895 2895 2896 2896 2897 2899 2901 2902 2904 2905 2906 2908 2908 2909 2910 2910 2910
2882 2881 2879 2877 2876 2875 2875 2874 2874 2874 2874 2874 2875 2876 2876 2876 2877 2877 2878 2879 2880 2882 2883 2884 2886 2888 2888 2889 2889 2890 2891 2893 2895 2896 2897 2899 2901 2901 2902 2903 2903 2904
2876 2875 2874 2872 2871 2870 2869 2869 2869 2868 2869 2869 2869 2870 2870 2870 2870 2871 2872 2872 2873 2875 2876 2877 2878 2879 2881 2882 2882 2883 2884 2885 2887 2888 2889 2892 2894 2894 2895 2896 2896 2897
2871 2869 2868 2867 2866 2865 2864 2864 2864 2863 2863 2864 2864 2864 2864 2864 2864 2865 2866 2866 2867 2868 2869 2869 2870 2871 2873 2874 2875 2876 2877 2878 2879 2880 2882 2884 2886 2887 2889 2889 2889 2891
2866 2864 2863 2862 2861 2860 2859 2859 2858 2858 2858 2859 2859 2859 2859 2859 2859 2860 2860 2860 2861 2861 2862 2862 2863 2864 2865 2866 2867 2868 2870 2871 2872 2873 2874 2877 2879 2880 2882 2882 2883 2884
2862 2860 2858 2857 2855 2855 2854 2853 2853 2853 2853 2853 2854 2854 2854 2855 2855 2855 2855 2855 2855 2855 2855 2856 2856 2857 2857 2858 2858 2860 2862 2863 2865 2866 2867 2869 2871 2873 2874 2875 2876 2877
2857 2855 2854 2852 2851 2849 2848 2847 2847 2847 2847 2848 2848 2848 2849 2849 2850 2850 2850 2849 2849 2849 2849 2849 2849 2850 2850 2851 2851 2852 2854 2855 2857 2858 2859 2862 2863 2865 2867 2868 2870 2871
2852 2850 2849 2847 2846 2844 2843 2842 2842 2841 2841 2841 2842 2842 2842 2843 2843 2843 2843 2843 2843 2843 2843 2843 2843 2843 2843 2844 2845 2846 2846 2847 2848 2850 2852 2854 2855 2857 2860 2862 2863 2864
2847 2846 2845 2843 2841 2840 2838 2837 2837 2836 2836 2836 2836 2836 2836 2836 2836 2836 2836 2836 2836 2836 2837 2837 2837 2837 2837 2837 2838 2839 2839 2840 2841 2842 2843 2845 2847 2849 2853 2854 2855 2857
2842 2841 2840 2839 2837 2836 2834 2833 2832 2831 2831 2830 2830 2830 2830 2830 2830 2829 2829 2829 2829 2830 2830 2830 2831 2831 2831 2831 2832 2833 2833 2833 2834 2835 2836 2837 2839 2842 2844 2846 2848 2849
2837 2836 2835 2834 2833 2831 2830 2829 2828 2827 2826 2825 2825 2825 2825 2824 2824 2824 2823 2823 2823 2823 2823 2823 2824 2824 2824 2825 2825 2826 2826 2827 2828 2828 2829 2830 2832 2834 2836 2838 2839 2841
2832 2830 2829 2828 2827 2826 2825 2824 2823 2822 2822 2821 2821 2820 2820 2820 2819 2818 2818 2817 2817 2817 2817 2817 2818 2818 2818 2819 2819 2820 2820 2820 2821 2821 2822 2823 2825 2827 2829 2830 2831 2834
2826 2824 2823 2821 2821 2820 2819 2818 2818 2817 2817 2816 2816 2815 2815 2815 2814 2813 2813 2812 2811 2811 2811 2812 2812 2812 2812 2813 2813 2813 2813 2814 2814 2815 2815 2816 2818 2821 2822 2823 2824 2827
2820 2818 2816 2815 2814 2814 2813 2813 2813 2812 2811 2811 2810 2810 2809 2809 2808 2808 2807 2807 2806 2806 2806 2806 2806 2806 2806 2807 2807 2807 2807 2807 2807 2807 2808 2809 2811 2813 2815 2816 2818 2820
2813 2812 2810 2809 2808 2808 2807 2807 2807 2807 2806 2806 2805 2804 2804 2803 2802 2802 2801 2801 2801 2801 2801 2801 2800 2801 2801 2801 2800 2800 2800 2800 2800 2801 2801 2802 2804 2806 2808 2810 2811 2813
2806 2804 2802 2801 2801 2802 2802 2802 2802 2802 2802 2801 2800 2799 2798 2797 2797 2796 2796 2796 2795 2795 2795 2795 2795 2795 2796 2795 2794 2794 2793 2793 2793 2794 2794 2795 2797 2798 2800 2802 2805 2807
2798 2796 2794 2794 2794 2795 2796 2796 2796 2797 2797 2796 2796 2795 2794 2793 2792 2792 2791 2790 2790 2790 2790 2790 2789 2790 2790 2789 2788 2787 2787 2786 2786 2786 2787 2788 2789 2791 2793 2796 2798 2801
2791 2789 2788 2787 2787 2789 2790 2791 2791 2791 2792 2791 2791 2790 2790 2788 2788 2787 2786 2786 2785 2785 2785 2785 2784 2784 2784 2783 2782 2781 2780 2779 2779 2779 2779 2780 2782 2784 2786 2789 2792 2794
2786 2784 2783 2782 2782 2783 2784 2785 2786 2786 2786 2786 2786 2785 2785 2784 2783 2782 2782 2781 2781 2780 2780 2780 2779 2779 2778 2777 2775 2774 2774 2772 2771 2771 2772 2772 2774 2777 2780 2783 2785 2788
2782 2780 2778 2777 2777 2778 2779 2781 2782 2782 2782 2782 2782 2781 2780 2779 2779 2778 2777 2777 2776 2776 2776 2775 2774 2774 2772 2771 2770 2768 2767 2765 2763 2763 2764 2765 2767 2771 2774 2776 2779 2782
2778 2776 2775 2774 2775 2775 2776 2777 2778 2778 2779 2778 2777 2776 2775 2775 2774 2773 2773 2772 2772 2772 2771 2770 2770 2769 2767 2765 2764 2762 2760 2757 2755 2755 2757 2758 2762 2765 2768 2770 2773 2776
2774 2772 2771 2771 2772 2773 2773 2774 2775 2775 2775 2774 2773 2772 2771 2770 2770 2769 2768 2768 2768 2767 2766 2765 2764 2763 2761 2760 2758 2756 2754 2751 2749 2750 2752 2754 2757 2760 2763 2765 2767 2770
2770 2769 2769 2769 2770 2770 2771 2772 2773 2772 2772 2770 2769 2768 2767 2766 2766 2765 2764 2764 2763 2763 2761 2759 2759 2758 2756 2754 2752 2751 2749 2746 2745 2747 2749 2751 2754 2756 2758 2760 2762 2765
2767 2767 2766 2767 2768 2768 2769 2769 2770 2769 2768 2767 2766 2765 2764 2763 2762 2761 2761 2760 2759 2757 2756 2754 2753 2752 2751 2749 2748 2747 2745 2743 2744 2746 2747 2749 2751 2752 2754 2756 2759 2762
2765 2765 2765 2765 2765 2766 2767 2767 2766 2765 2765 2764 2763 2761 2761 2760 2759 2758 2757 2756 2754 2752 2751 2749 2748 2747 2746 2745 2743 2743 2741 2741 2742 2744 2746 2747 2748 2750 2752 2754 2756 2759
2763 2763 2763 2763 2763 2764 2764 2763 2763 2762 2762 2761 2760 2759 2758 2757 2756 2754 2753 2751 2749 2747 2745 2744 2743 2742 2742 2740 2740 2739 2739 2739 2740 2742 2744 2745 2746 2747 2749 2751 2753 2756
Wind_Speed
35 36 37 38 39 40 42 43 44 44 45 46 46 46 47 49 51 53 53 52 52 53 53 52 51 50 49 49 50 51 51 51 51 50 50 50 48 47 47 48 49 50
33 33 34 37 37 38 39 40 40 40 41 41 42 42 42 43 45 48 50 51 51 51 51 52 53 53 51 50 49 49 50 50 50 50 50 50 49 47 46 46 48 49
31 31 32 34 35 36 37 38 39 38 37 37 37 38 38 38 39 41 43 46 49 50 51 51 52 53 54 52 50 49 49 49 49 49 50 49 49 48 46 45 46 47
30 30 30 31 32 34 36 37 38 37 37 36 36 36 36 37 37 37 37 39 42 45 48 49 50 51 52 53 53 51 50 48 48 48 49 49 49 48 46 45 46 46
30 29 29 30 31 32 34 36 37 37 37 37 37 37 37 37 38 37 37 37 38 39 41 43 46 48 49 51 53 53 52 50 49 48 49 49 48 47 46 45 45 45
30 29 29 29 30 31 33 35 36 37 38 38 39 39 39 39 39 39 40 40 40 40 39 39 41 43 45 47 50 52 53 52 51 49 49 49 48 47 46 45 44 44
29 29 30 30 31 32 34 35 36 37 38 39 40 41 41 41 40 41 42 42 42 43 42 42 41 41 42 43 46 49 51 53 52 51 50 48 48 48 47 45 44 44
28 29 30 30 31 33 34 35 36 37 38 39 40 41 41 41 41 41 42 43 43 44 44 44 44 43 43 42 42 44 46 50 52 52 52 49 49 50 48 46 45 44
28 29 29 29 30 32 33 35 36 36 38 38 38 39 39 40 41 41 42 42 42 43 43 44 44 44 44 43 42 41 42 44 47 50 51 51 50 51 49 47 46 45
28 28 28 28 28 29 31 32 34 35 36 36 36 36 37 37 38 39 40 41 42 42 42 42 43 43 44 44 43 42 41 41 42 45 49 50 50 50 50 49 47 46
28 28 28 28 28 28 29 29 31 32 32 32 33 33 34 35 36 37 38 39 40 40 40 40 40 41 41 42 42 42 41 41 40 42 45 48 50 49 50 50 49 48
29 29 29 29 28 27 27 28 28 29 29 29 30 32 33 34 34 35 36 36 37 38 38 38 38 38 39 40 41 41 42 42 42 41 42 45 48 49 49 49 50 49
30 31 31 31 30 28 27 27 26 27 27 27 28 30 31 31 32 32 32 33 35 35 36 36 36 37 37 38 39 40 41 42 43 43 42 43 45 48 49 48 49 49
34 34 33 33 32 30 29 27 26 26 27 26 27 28 28 28 28 28 29 30 32 33 34 34 35 35 36 36 37 38 40 42 43 43 43 43 44 46 49 48 47 49
40 38 38 36 34 32 30 28 26 26 26 25 26 26 26 26 26 26 27 28 29 31 32 32 33 33 34 35 36 38 39 41 42 43 43 44 45 47 50 50 47 47
42 41 41 39 35 32 31 29 26 26 25 23 24 25 24 25 25 25 26 27 28 29 29 30 31 32 32 34 36 38 40 41 43 43 43 44 46 48 50 50 47 46
40 39 39 38 35 32 30 28 25 24 23 22 22 23 22 23 24 25 26 28 28 28 28 30 31 31 31 33 34 36 39 41 43 44 44 44 45 49 50 49 46 45
34 33 32 33 31 29 28 27 24 23 23 22 21 22 21 22 24 25 27 28 28 29 29 29 30 30 31 32 34 35 37 39 41 43 44 44 44 48 49 47 44 44
29 28 28 28 26 24 26 25 22 21 21 20 21 22 23 24 25 26 27 27 28 29 29 29 29 30 30 31 33 34 35 38 40 41 42 43 43 45 47 45 42 42
26 26 25 23 21 21 23 22 19 19 19 19 22 23 24 25 26 26 26 27 29 29 28 28 29 29 29 30 32 33 34 37 40 38 37 38 39 41 43 42 41 40
24 23 20 17 15 16 19 19 17 17 18 20 23 24 25 25 25 26 26 27 28 27 26 27 28 28 29 29 30 31 33 36 36 33 32 32 34 37 39 40 38 37
22 20 16 12 12 13 16 17 17 16 18 21 24 24 24 25 25 25 26 26 26 26 26 28 28 28 28 27 28 30 31 32 30 28 28 29 31 34 36 36 35 35
19 17 14 13 13 15 16 16 15 17 19 21 22 22 22 23 24 24 25 25 25 26 27 29 28 26 25 25 26 28 28 26 26 25 26 28 30 32 33 33 32 33
16 15 13 13 14 15 15 15 15 17 19 19 19 20 20 21 21 23 23 24 25 26 28 29 27 24 23 24 25 26 25 24 26 25 25 27 28 29 29 28 28 29
13 12 12 13 15 15 14 15 16 17 17 17 18 18 19 19 20 22 23 23 24 26 27 26 25 23 22 23 23 23 23 24 25 24 24 23 22 22 22 23 24 26
11 10 10 11 12 13 14 15 16 16 16 17 18 18 18 18 20 22 22 21 23 25 23 21 21 20 20 21 22 21 21 21 21 22 21 18 16 16 18 20 22 23
Wind_Direction
285 281 278 275 274 274 273 273 273 272 271 270 267 264 261 258 256 254 253 253 252 253 252 252 252 249 246 244 242 240 241 242 245 247 250 252 254 255 257 259 260 260
287 282 276 274 272 271 272 272 273 273 272 271 268 265 263 260 258 256 255 253 251 250 249 249 249 249 248 246 244 242 240 241 243 246 249 252 253 254 256 257 259 259
289 285 279 275 273 270 270 270 271 271 270 269 268 267 266 264 263 261 258 257 254 252 251 250 248 247 247 248 248 246 242 241 242 244 247 250 252 253 254 255 257 257
290 288 284 280 276 272 270 269 269 269 267 266 265 266 266 266 266 264 262 262 260 257 255 254 252 249 247 246 247 248 246 243 242 243 245 247 249 251 252 254 255 256
290 289 287 285 281 277 273 271 270 270 268 267 265 264 264 265 266 266 266 265 265 263 261 259 258 256 253 250 247 246 246 246 244 243 244 245 247 249 251 253 255 256
290 288 285 284 283 281 278 275 273 272 271 270 268 267 266 265 266 266 267 268 267 267 266 264 263 261 260 258 254 249 245 244 244 244 244 243 245 247 248 251 253 255
290 288 285 283 282 281 280 278 276 274 272 271 270 269 269 268 267 267 267 268 268 268 267 266 266 264 263 263 261 257 251 246 244 243 243 243 243 244 246 248 252 254
292 290 287 285 283 281 280 278 277 275 273 272 271 271 272 271 271 271 270 269 269 268 268 267 266 265 265 264 263 263 260 255 249 245 243 242 243 243 244 246 249 252
292 292 291 288 284 282 281 278 277 275 274 274 273 274 275 274 275 274 273 272 271 270 268 267 266 265 265 265 264 263 263 261 258 252 246 242 242 242 242 244 246 249
289 290 289 287 283 280 280 279 278 276 275 274 275 275 276 276 275 275 274 273 272 271 270 268 266 265 264 264 264 263 262 262 261 259 253 248 245 243 242 242 243 245
288 288 287 286 283 279 277 275 275 274 273 274 274 274 274 274 273 272 272 272 272 271 270 268 267 265 264 264 264 263 263 262 260 260 258 253 250 247 243 241 241 242
288 288 286 285 285 282 278 274 271 270 270 270 271 271 270 269 269 270 270 270 271 271 270 269 268 266 265 265 264 264 263 262 261 259 258 256 252 250 248 244 241 241
287 286 283 281 281 281 278 274 272 272 270 269 269 269 269 269 269 269 269 269 269 269 269 269 268 268 267 266 265 264 263 262 261 259 257 254 252 251 251 248 243 241
284 282 281 277 276 276 275 272 271 271 270 271 272 273 273 273 272 270 269 268 267 268 268 268 268 268 268 268 267 265 263 262 261 261 258 253 248 247 249 250 245 241
284 281 279 275 273 272 272 269 266 265 266 270 276 277 277 277 275 273 271 270 269 268 267 267 267 268 270 271 270 268 266 264 262 262 261 255 247 243 245 249 246 240
287 283 279 276 272 271 270 268 264 261 261 268 276 279 279 280 278 276 274 272 270 269 268 268 269 271 272 272 271 269 267 265 263 262 263 259 251 242 242 247 247 241
292 288 284 280 274 269 267 267 263 261 261 267 275 278 280 280 278 276 274 272 271 269 268 269 271 273 274 272 271 268 266 264 263 262 262 260 254 245 242 245 247 243
297 294 291 287 278 266 263 265 264 262 263 267 274 279 281 281 279 276 273 271 270 268 268 270 273 274 274 274 273 271 268 265 264 262 262 261 255 247 245 245 247 246
301 299 297 292 281 263 258 263 265 265 266 271 278 282 284 284 280 276 273 270 267 267 268 271 274 275 277 277 276 274 271 269 267 263 260 259 253 247 247 246 245 246
304 301 298 293 279 260 256 261 265 268 272 278 283 286 286 285 281 277 274 271 268 267 270 273 277 279 280 280 277 274 273 273 270 262 255 253 249 246 246 245 242 244
307 303 298 288 272 260 261 265 269 274 281 284 285 285 286 285 282 278 274 272 271 272 275 278 282 284 284 281 276 274 277 278 271 257 246 244 243 241 240 240 239 239
308 304 294 274 256 256 264 270 275 283 289 289 286 285 286 285 281 278 276 276 277 280 282 284 286 286 285 280 275 277 282 277 264 249 236 233 234 235 236 237 235 233
308 302 285 261 250 259 269 276 285 292 293 291 289 288 287 284 282 281 281 282 283 284 284 285 285 284 282 277 275 280 282 269 253 240 229 227 232 235 236 235 231 228
307 300 284 262 257 268 280 288 294 296 296 294 291 289 287 285 285 284 283 283 284 284 284 284 283 280 277 273 273 277 276 261 246 237 229 230 235 237 235 232 228 228
305 303 288 269 266 274 285 292 295 297 297 293 288 286 286 285 285 286 286 287 287 287 286 282 279 277 273 270 271 271 267 259 250 242 235 235 237 236 234 231 229 228
300 300 293 283 281 285 289 291 295 297 294 288 286 287 289 290 292 295 297 298 297 294 289 279 273 273 270 270 271 266 260 260 256 246 239 239 239 236 234 233 231 229